Location: ????????
(60.4333°N, 46.4710°E)
Time: 19:13:52
(UTC+00:00)

COSMO-SKYMED 1 - Pass Details

Date: 25 November 2020
Orbit: 621 x 623 km, 97.9° (Epoch: 17 January)

Event Time Altitude Azimuth Distance (km) Brightness Sun altitude
Exits shadow 13:55:07 17° 89° (E) 1,578 4.1 -12.6°
Drops below altitude 10° 13:57:52 10° 128° (SE) 2,000 4.9 -12.9°
Sets 14:00:44 0° 148° (SSE) 2,901 5.9 -13.3°
